#timestamp,LO_Frequency,Hit,StdDev 
1536076815.1,286046998.3,N
1536076835.9,286046998.8,N
1536076855.7,286046998.5,N
1536076875.5,286046998.3,N
1536076895.4,286047000.2,N
1536076915.2,286047001.8,N
1536076935.0,286047002.0,N
1536076936.0,286047002.0,N
1536076955.8,286046997.4,N
1536076975.6,286046998.1,N
1536076995.5,286046998.3,N
1536077015.3,286047000.7,N
1536077035.1,286046999.9,N
1536077055.9,286047000.7,N
1536077075.7,286047000.6,N
1536077095.6,286047000.6,N
1536077115.4,286047000.0,N
1536077135.2,286047000.9,N
1536077155.1,286046998.8,N
1536077156.0,286046998.8,N
1536077175.8,286046999.1,N
1536077195.7,286046998.4,N
1536077215.5,286047000.2,N
1536077235.3,286047000.7,N
1536077255.2,286047001.2,N
1536077275.0,286046998.7,N
1536077275.9,286046998.7,N
1536077295.7,286047001.2,N
1536077315.6,286046999.9,N
1536077335.4,286046998.3,N
1536077355.3,286046998.4,N
1536077375.1,286046998.2,N
1536077376.0,286046998.2,N
1536077395.8,286046998.1,N
1536077415.7,286046998.5,N
1536077435.5,286046998.6,N
1536077455.4,286046997.7,N
1536077475.2,286046997.1,N
1536077495.0,286046997.7,N
1536077495.9,286046997.7,N
1536077515.8,286046997.4,N
1536077535.6,286046999.6,N
1536077555.4,286046997.3,N
1536077575.3,286046997.2,N
1536077595.1,286046997.2,N
1536077615.9,286046995.4,Y
1536077635.7,286046999.5,P
1536077655.5,286046997.6,P
1536077675.4,286046997.8,N
1536077695.2,286046997.9,N
1536077715.0,286046999.2,N
1536077715.9,286046999.2,N
1536077735.8,286046999.4,N
1536077755.6,286046999.2,N
1536077775.5,286046999.5,N
1536077795.3,286046999.3,N
1536077815.1,286046999.1,N
1536077835.9,286046999.0,N
1536077855.7,286046999.4,N
1536077875.5,286046999.4,N
1536077895.4,286046998.9,N
1536077915.2,286046998.6,N
1536077935.1,286047000.6,N
1536077936.0,286047000.6,N
1536077955.8,286047000.5,N
1536077975.6,286047000.9,N
1536077995.5,286047001.2,N
1536078015.3,286046998.2,N
1536078035.2,286046998.3,N
1536078055.9,286047000.9,N
1536078075.7,286047000.6,N
1536078095.6,286047000.9,N
1536078115.4,286047000.2,N
1536078135.2,286047000.4,N
1536078155.1,286047000.9,N
1536078156.0,286047000.9,N
1536078175.8,286047000.0,N
1536078195.7,286047000.4,N
1536078215.5,286046999.8,N
1536078235.3,286047000.8,N
1536078255.2,286047001.1,N
1536078275.0,286046998.7,N
1536078275.9,286046998.7,N
1536078295.8,286046999.4,N
1536078315.6,286046999.3,N
1536078335.4,286046998.9,N
1536078355.3,286046999.4,N
1536078375.1,286046998.4,N
1536078395.9,286046999.3,N
1536078415.7,286046998.4,N
1536078435.5,286046998.1,N
1536078455.4,286047000.7,N
1536078475.2,286047000.0,N
1536078495.0,286046999.9,N
1536078495.9,286046999.9,N
1536078515.8,286046999.9,N
1536078535.6,286046999.9,N
1536078555.5,286046999.9,N
1536078575.3,286047000.4,N
1536078595.1,286047002.8,Y
1536078615.9,286047000.0,P
1536078635.7,286047002.7,P
1536078655.6,286046999.9,N
1536078675.4,286047000.3,N
1536078695.2,286047000.0,N
1536078715.1,286046999.7,N
1536078716.0,286046999.7,N
1536078735.8,286047002.7,N
1536078755.7,286047002.7,N
1536078775.5,286047002.7,N
1536078795.3,286047002.6,N
1536078815.2,286047002.1,N
1536078835.0,286047001.8,N
1536078835.9,286047001.8,N
1536078855.7,286047001.4,N
1536078875.6,286047001.7,N
1536078895.4,286047002.1,N
1536078915.3,286047002.5,N
1536078935.1,286047001.6,N
1536078936.0,286047001.6,N
1536078955.8,286047002.7,N
1536078975.7,286047001.6,N
1536078995.5,286047002.0,N
1536079015.4,286047001.9,N
1536079035.2,286047001.4,N
1536079055.0,286047001.4,N
1536079055.9,286047001.4,N
1536079075.8,286047001.5,N
1536079095.6,286047001.9,N
1536079115.4,286046999.9,N
1536079135.3,286046999.7,N
1536079155.1,286047002.3,N
1536079175.9,286047002.5,N
1536079195.7,286046999.7,N
1536079215.5,286047002.4,N
1536079235.4,286047000.1,N
1536079255.2,286047000.0,N
1536079275.1,286047002.6,N
1536079276.0,286047002.6,N
1536079295.8,286047002.1,N
1536079315.6,286047001.8,N
1536079335.5,286047002.5,N
1536079355.3,286047001.6,N
1536079375.1,286047001.6,N
1536079395.9,286047002.6,N
1536079415.7,286046999.8,N
1536079435.6,286047000.0,N
1536079455.4,286047002.2,N
1536079475.2,286047002.3,N
1536079495.1,286047002.4,N
1536079496.0,286047002.4,N
1536079515.8,286047002.0,N
1536079535.6,286047002.5,N
1536079555.5,286046999.9,N
1536079575.3,286047002.2,N
1536079595.2,286047001.7,N
1536079615.9,286047002.2,N
1536079635.7,286047002.5,N
1536079655.6,286047001.3,N
1536079675.4,286047001.3,N
1536079695.3,286047001.4,N
1536079715.1,286047001.6,N
1536079716.0,286047001.6,N
1536079735.8,286047004.4,Y
1536079755.7,286047000.3,P
1536079775.5,286047000.1,N
1536079795.3,286047000.9,N
1536079815.2,286047000.5,N
1536079835.0,286047002.7,Y
1536079835.9,286047002.7,P
1536079855.8,286047002.8,N
1536079875.6,286047002.1,N
1536079895.4,286046999.9,N
1536079915.3,286046999.8,N
1536079935.1,286047000.9,N
1536079955.9,286047000.7,N
1536079975.7,286047000.7,N
1536079995.5,286047000.3,N
1536080015.4,286047000.1,N
1536080035.2,286047000.3,N
1536080055.0,286047000.4,N
1536080055.9,286047000.4,N
1536080075.8,286047000.9,N
1536080095.6,286047000.5,N
1536080115.5,286046999.7,N
1536080135.3,286047002.4,N
1536080155.1,286047002.8,N
1536080175.9,286046999.8,N
1536080195.7,286047002.4,N
1536080215.6,286046999.8,N
1536080235.4,286047000.0,N
1536080255.2,286047000.6,N
1536080275.1,286047000.1,N
1536080276.0,286047000.1,N
1536080295.8,286046999.7,N
1536080315.6,286047002.3,N
1536080335.5,286047002.7,N
1536080355.3,286047000.1,N
1536080375.2,286047000.1,N
1536080395.9,286046999.9,N
